TimeGMT,TemperatureF,Dew PointF,Humidity,Sea Level PressureIn,VisibilityMPH,Wind Direction,Wind SpeedMPH,Gust SpeedMPH,PrecipitationIn,Events,Conditions,WindDirDegrees,DateUTC
6:50 AM,33.8,32.0,93,29.65,6.2,SW,6.9,-,N/A,,Mostly Cloudy,230,2013-01-26 06:50:00
7:20 AM,35.6,33.8,93,29.65,6.2,WSW,8.1,-,N/A,,Scattered Clouds,250,2013-01-26 07:20:00
7:50 AM,35.6,33.8,93,29.68,6.2,West,10.4,-,N/A,,Partly Cloudy,270,2013-01-26 07:50:00
8:20 AM,35.6,33.8,93,29.71,6.2,West,11.5,-,N/A,,Partly Cloudy,260,2013-01-26 08:20:00
8:50 AM,37.4,33.8,87,29.71,6.2,West,9.2,-,N/A,,Partly Cloudy,260,2013-01-26 08:50:00
9:50 AM,37.4,33.8,87,29.74,6.2,WSW,6.9,-,N/A,,Partly Cloudy,240,2013-01-26 09:50:00
10:20 AM,37.4,33.8,87,29.77,-9999.0,WSW,8.1,-,N/A,,Clear,240,2013-01-26 10:20:00
10:50 AM,39.2,35.6,87,29.77,-9999.0,WSW,10.4,-,N/A,,Clear,240,2013-01-26 10:50:00
11:20 AM,39.2,35.6,87,29.77,-9999.0,SW,10.4,-,N/A,,Clear,230,2013-01-26 11:20:00
11:50 AM,41.0,33.8,76,29.77,-9999.0,SW,12.7,-,N/A,,Clear,230,2013-01-26 11:50:00
12:20 PM,41.0,35.6,81,29.80,-9999.0,WSW,13.8,-,N/A,,Clear,240,2013-01-26 12:20:00
12:50 PM,42.8,35.6,76,29.77,-9999.0,WSW,12.7,-,N/A,,Clear,240,2013-01-26 12:50:00
1:20 PM,41.0,35.6,81,29.77,-9999.0,SW,8.1,-,N/A,,Clear,220,2013-01-26 13:20:00
1:50 PM,41.0,35.6,81,29.77,-9999.0,SW,10.4,-,N/A,,Clear,220,2013-01-26 13:50:00
2:20 PM,42.8,35.6,76,29.77,-9999.0,SW,13.8,-,N/A,,Clear,220,2013-01-26 14:20:00
2:50 PM,41.0,35.6,81,29.77,-9999.0,SSW,10.4,-,N/A,,Clear,210,2013-01-26 14:50:00
3:20 PM,41.0,35.6,81,29.77,-9999.0,SW,12.7,-,N/A,,Clear,220,2013-01-26 15:20:00
3:50 PM,41.0,35.6,81,29.77,6.2,SSW,8.1,-,N/A,,Scattered Clouds,200,2013-01-26 15:50:00
4:20 PM,39.2,35.6,87,29.77,6.2,SSE,6.9,-,N/A,,Scattered Clouds,150,2013-01-26 16:20:00
4:50 PM,39.2,35.6,87,29.77,6.2,SE,9.2,-,N/A,,Partly Cloudy,140,2013-01-26 16:50:00
5:20 PM,39.2,35.6,87,29.74,6.2,South,8.1,-,N/A,,Partly Cloudy,170,2013-01-26 17:20:00
5:50 PM,39.2,35.6,87,29.74,-9999.0,SSE,8.1,-,N/A,,Clear,150,2013-01-26 17:50:00
6:20 PM,41.0,35.6,81,29.71,-9999.0,SSE,12.7,-,N/A,,Clear,160,2013-01-26 18:20:00